Tracking 29892 objects as of 21-Nov-2024
HD Live streaming from Space Station
objects crossing your sky now

DELTA 1 DEB

Track DELTA 1 DEB now!
10-day predictions


NORAD ID: 13532
Int'l Code: 1976-077EE
Perigee: 1,484.4 km
Apogee: 1,945.6 km
Inclination: 102.2 °
Period: 120.6 minutes
Semi major axis: 8086 km
RCS: 0.0176 m2 (small)
Launch date: July 29, 1976
Source: United States (US)
Launch site: AIR FORCE WESTERN TEST RANGE (AFWTR)

Note: This is SATELLITE DEBRIS
Your satellite tracking list
Your tracking list is empty




NASA's NSSDC Master Catalog

Two Line Element Set (TLE):
1 13532U 76077EE  24325.41390903 -.00000163  00000-0 -14507-2 0  9997
2 13532 102.1908 295.0308 0285202 247.9200 271.5089 11.93993423893160
Source of the keplerian elements: AFSPC